User: anonymous   Login
Location: Scultetus-Sternwarte G�rlitz
(51.1356°N, 14.9514°E)
Time: 14:15:59
(UTC+02:00)
Language:

Iridium 3 - Orbit

View from above orbital plane
View from above orbital plane
View from above satellite
View from above satellite

Ground track
Ground track

The orbit data is extracted from the following two-line orbital elements,

1 25431U 98048A   16207.53329584 -.00000039  00000-0 -21059-4 0  9994
2 25431  86.3941  32.2646 0002093  80.6019 300.7363 14.34216668938798
Epoch (UTC): 25 July 2016 12:47:56
Eccentricity: 0.0002093
inclination: 86.3941°
perigee height: 776 km
apogee height: 779 km
right ascension of ascending node: 32.2646°
argument of perigee: 80.6019°
revolutions per day: 14.34216668
mean anomaly at epoch: 300.7363°
orbit number at epoch: 93879

The dashed part of the orbit path shows where the satellite is in the earth's shadow,  

DLR